Погода в Кабимасе

Венесуэла     10°26′04″N   71°23′35″W
темп.,
°C
ветер,
м/с
пор.,
м/с
влажн.,
%
обл.,
%
осадки,
мм/ч
давл.,
гПа
погр.,
м
5 августа, чт
чт523:00+26всв1179100 2.4 1014130
02:00+27с4582100 2.4 1012308
05:00+27зсз128392 0.6 1012270
08:00+27ююз238231 0.6 1013359
11:00+29ююз447010 0.0 1014783
14:00+30ююз43694 0.0 1011550
17:00+31ю12633 0.0 1009573
20:00+29ссв610670 0.9 1011429
6 августа, пт
пт623:00+28с89820 0.1 1011442
02:00+27всв12790 0.1 1010213
05:00+27ююв248472 0.2 1010286
08:00+27ююз358031 0.3 1012548
11:00+29ю447111 0.1 1013726
14:00+32ю43592 0.1 1010780
17:00+32всв225654 0.1 1008566
20:00+28ссв610725 0.9 1010367
7 августа, сб
сб723:00+27ссв697898 0.0 1012498
02:00+27ссз4582100 0.0 1010396
05:00+26ююв238599 0.0 1010285
08:00+27ююз4684100 0.2 1012575
11:00+29ю457378 0.1 1013740
14:00+31ююз446421 0.1 1010822
17:00+30св33673 0.3 1009388
20:00+28ссв6107763 1.8 1010398
8 августа, вс
вс823:00+27ссв8118358 0.3 1011493
02:00+27ссв5780100 0.3 1010368
05:00+26св3380100 0.0 1010265
08:00+26юв348724 0.6 1012340
11:00+28юв447880 0.6 1013644
14:00+31ю4465100 1.4 1010743
17:00+31ссв236697 2.9 1009523
20:00+28ссв697694 3.6 1011459
9 августа, пн
пн923:00+26св61085100 0.0 1013461
02:00+26ссв5688100 0.0 1011343
05:00+26ссв238598 0.3 1011276
08:00+26ю238485 0.5 1012387
11:00+29ююв447399 0.3 1013880
14:00+31ю4462100 0.4 1010938
17:00+30всв227083 1.4 1009366
20:00+28ссв6107680 2.1 1011481